period_start,C,m1,H,J0,J1,J2,J3,J4,J5,JA,JB,JC,JD,JJ,JK,JN,#
2015-04-13 00:00:51,0.11,3.81,0.00,23.84,26.73,29.44,4.76,27.36,1013.20,2033.97,2141.72,2407.48,2587.58,350.30,345.93,29.39,0000 0000 0000 0000 000000
2015-04-13 00:05:52,0.05,3.82,0.00,23.81,26.72,29.43,4.70,27.45,1013.20,2033.96,2140.97,2406.99,2587.00,349.33,344.95,29.42,0000 0000 0000 0000 000000
2015-04-13 00:10:53,0.14,3.82,0.00,23.82,26.72,29.42,4.78,27.39,1013.18,2033.98,2140.18,2406.44,2586.42,350.56,346.10,29.45,0000 0000 0000 0000 000000
2015-04-13 00:15:55,0.06,3.82,0.00,23.84,26.72,29.43,4.75,27.47,1013.15,2033.98,2139.50,2405.98,2585.95,350.32,345.77,29.48,0000 0000 0000 0000 000000
2015-04-13 00:20:56,0.11,3.82,0.00,23.86,26.72,29.42,4.69,27.50,1013.14,2033.99,2138.87,2405.39,2585.17,349.63,345.10,29.51,0000 0000 0000 0000 000000
2015-04-13 00:25:57,0.06,3.83,0.00,23.87,26.71,29.45,4.76,27.59,1013.16,2033.99,2138.04,2404.98,2584.88,349.83,345.33,29.54,0000 0000 0000 0000 000000
2015-04-13 00:30:59,0.14,3.83,0.00,23.91,26.70,29.42,4.76,27.59,1013.16,2033.99,2137.21,2404.38,2584.10,349.87,345.48,29.57,0000 0000 0000 0000 000000
2015-04-13 00:36:00,0.09,3.83,0.00,23.90,26.70,29.45,4.70,27.71,1013.06,2033.97,2136.52,2403.91,2583.56,350.11,345.57,29.60,0000 0000 0000 0000 000000
2015-04-13 00:41:02,0.08,3.84,0.00,23.88,26.70,29.47,4.70,27.50,1013.01,2033.98,2135.93,2403.12,2583.00,350.35,345.75,29.63,0000 0000 0000 0000 000000
2015-04-13 00:46:03,0.09,3.84,0.00,23.90,26.70,29.44,4.76,27.77,1012.96,2033.99,2135.09,2402.96,2582.35,349.92,345.30,29.66,0000 0000 0000 0000 000000
2015-04-13 00:51:05,0.12,3.84,0.00,23.96,26.70,29.43,4.75,27.68,1013.04,2033.99,2134.32,2402.19,2581.87,350.29,345.64,29.69,0000 0000 0000 0000 000000
2015-04-13 00:56:06,0.09,3.85,0.00,23.93,26.70,29.43,4.71,27.86,1013.09,2033.99,2133.62,2401.85,2581.08,350.08,345.35,29.72,0000 0000 0000 0000 000000
2015-04-13 01:01:08,0.11,3.85,0.00,23.93,26.70,29.41,4.78,27.62,1013.04,2033.99,2132.82,2401.08,2580.66,350.20,345.51,29.75,0000 0000 0000 0000 000000
2015-04-13 01:06:09,0.09,3.85,0.00,23.98,26.70,29.42,4.78,27.73,1013.00,2033.99,2131.92,2400.76,2580.01,350.28,345.50,29.77,0000 0000 0000 0000 000000
2015-04-13 01:11:10,0.12,3.86,0.00,24.00,26.70,29.42,4.76,27.78,1012.90,2033.99,2131.07,2400.03,2579.34,350.57,345.81,29.80,0000 0000 0000 0000 000000
2015-04-13 01:16:12,0.08,3.86,0.00,24.00,26.70,29.40,4.71,27.68,1012.87,2033.99,2130.48,2399.76,2578.94,350.71,346.01,29.83,0000 0000 0000 0000 000000
2015-04-13 01:21:13,0.11,3.86,0.00,24.01,26.70,29.41,4.74,27.48,1012.97,2033.99,2129.75,2399.04,2578.16,350.49,345.75,29.86,0000 0000 0000 0000 000000
2015-04-13 01:26:14,0.14,3.86,0.00,24.06,26.70,29.43,4.73,27.63,1012.81,2033.99,2128.78,2398.30,2577.66,350.08,345.23,29.89,0000 0000 0000 0000 000000
2015-04-13 01:31:15,0.05,3.87,0.00,24.08,26.70,29.44,4.75,27.72,1012.79,2033.99,2128.05,2397.97,2577.00,350.20,345.27,29.92,0000 0000 0000 0000 000000
2015-04-13 01:36:17,0.15,3.87,0.00,24.11,26.70,29.43,4.75,27.64,1012.74,2033.99,2127.39,2397.21,2576.29,350.04,344.97,29.95,0000 0000 0000 0000 000000
2015-04-13 01:41:18,0.05,3.87,0.00,24.15,26.70,29.45,4.75,27.74,1012.73,2033.98,2126.74,2396.93,2575.86,350.52,345.63,29.98,0000 0000 0000 0000 000000
2015-04-13 01:46:19,0.11,3.88,0.00,24.18,26.70,29.45,4.79,27.77,1012.73,2033.99,2126.00,2396.12,2575.08,350.21,345.32,30.01,0000 0000 0000 0000 000000
2015-04-13 01:51:21,0.08,3.88,0.00,24.18,26.71,29.47,4.67,27.73,1012.72,2033.99,2125.15,2395.89,2574.68,349.56,344.40,30.04,0000 0000 0000 0000 000000
2015-04-13 01:56:22,0.12,3.88,0.00,24.22,26.72,29.48,4.71,27.73,1012.73,2033.99,2124.45,2395.11,2574.01,349.94,344.97,30.07,0000 0000 0000 0000 000000
2015-04-13 02:01:23,0.14,3.89,0.00,24.26,26.72,29.46,4.79,27.57,1012.72,2033.99,2123.39,2394.59,2573.36,350.43,345.31,30.10,0000 0000 0000 0000 000000
2015-04-13 02:06:25,0.07,3.89,0.00,24.31,26.72,29.47,4.72,27.56,1012.73,2033.99,2122.56,2394.01,2572.89,350.14,345.03,30.13,0000 0000 0000 0000 000000
2015-04-13 02:11:26,0.11,3.89,0.00,24.33,26.72,29.47,4.78,27.59,1012.72,2033.99,2121.89,2393.37,2572.07,350.57,345.49,30.16,0000 0000 0000 0000 000000
2015-04-13 02:16:28,0.08,3.90,0.00,24.35,26.72,29.45,4.71,27.59,1012.72,2033.99,2121.02,2392.98,2571.62,349.97,344.55,30.18,0000 0000 0000 0000 000000
2015-04-13 02:21:29,0.13,3.90,0.00,24.33,26.74,29.46,4.65,27.68,1012.72,2033.99,2120.16,2392.21,2570.99,350.01,344.81,30.21,0000 0000 0000 0000 000000
2015-04-13 02:26:30,0.10,3.90,0.00,24.39,26.75,29.46,4.72,27.64,1012.72,2033.99,2119.31,2391.88,2570.21,349.89,344.57,30.24,0000 0000 0000 0000 000000
2015-04-13 02:31:31,0.12,3.91,0.00,24.42,26.75,29.46,4.73,27.78,1012.77,2033.99,2118.58,2391.06,2569.71,350.21,344.94,30.27,0000 0000 0000 0000 000000
2015-04-13 02:36:32,0.68,3.92,0.00,24.44,26.75,29.47,4.70,27.91,1012.88,2033.99,2115.20,2388.16,2566.57,349.04,343.80,30.30,0000 0000 0000 0000 000000
2015-04-13 02:41:34,0.73,3.94,0.00,24.47,26.76,29.48,4.75,27.77,1012.91,2033.99,2110.13,2383.40,2561.59,350.43,345.13,30.33,0000 0000 0000 0000 000000
2015-04-13 02:46:35,0.73,3.96,0.00,24.50,26.77,29.50,4.67,27.74,1013.01,2033.99,2105.64,2379.60,2557.91,349.40,344.12,30.36,0000 0000 0000 0000 000000
2015-04-13 02:51:36,1.78,4.01,0.00,24.53,26.77,29.52,4.72,27.94,1013.06,2033.98,2095.56,2370.24,2548.30,350.22,344.96,30.39,0000 0000 0000 0000 000000
2015-04-13 02:56:38,1.59,4.05,0.07,24.57,26.77,29.51,4.74,27.81,1013.07,2033.98,2085.95,2361.51,2539.07,349.90,344.38,30.42,0000 0000 0000 0000 000000
2015-04-13 03:01:39,0.58,4.08,1.00,24.61,26.79,29.53,4.69,27.88,1013.13,2033.95,2081.12,2357.01,2534.56,349.93,344.61,30.45,0000 0000 0000 0000 000000
2015-04-13 03:06:41,0.21,4.09,1.00,24.61,26.80,29.51,4.75,27.68,1013.14,2033.93,2079.15,2355.22,2532.61,349.98,344.60,30.48,0000 0000 0000 0000 000000
2015-04-13 03:11:42,0.24,4.10,1.00,24.64,26.80,29.47,4.73,27.68,1013.13,2033.90,2077.52,2354.02,2531.34,349.97,344.74,30.51,0000 0000 0000 0000 000000
2015-04-13 03:16:43,2.58,4.13,1.00,24.66,26.81,29.49,4.72,27.77,1013.17,2033.84,2066.77,2343.53,2520.56,350.08,344.57,30.54,0000 0000 0000 0000 000000
2015-04-13 03:21:44,1.95,4.22,1.00,24.68,26.82,29.49,4.70,27.77,1013.18,2033.55,2051.94,2329.04,2505.82,350.70,345.25,30.57,0000 0000 0000 0000 000000
2015-04-13 03:26:46,0.55,4.24,1.00,24.71,26.82,29.51,4.65,27.63,1013.18,2033.41,2047.76,2325.06,2501.76,350.11,344.60,30.59,0000 0000 0000 0000 000000
2015-04-13 03:31:47,1.12,4.27,1.00,24.76,26.84,29.53,4.64,27.77,1013.15,2033.28,2042.00,2319.40,2496.00,349.70,344.12,30.62,0000 0000 0000 0000 000000
2015-04-13 03:36:48,1.01,4.30,1.00,24.81,26.85,29.54,4.66,27.88,1013.13,2033.10,2035.42,2313.25,2489.77,350.39,344.70,30.65,0000 0000 0000 0000 000000
2015-04-13 03:41:50,0.60,4.32,1.00,24.83,26.86,29.56,4.67,27.78,1013.11,2033.09,2031.42,2309.40,2485.82,349.90,344.27,30.68,0000 0000 0000 0000 000000
2015-04-13 03:46:51,0.38,4.34,1.00,24.83,26.87,29.56,4.73,27.49,1013.11,2033.10,2028.90,2307.11,2483.47,350.13,344.52,30.71,0000 0000 0000 0000 000000
2015-04-13 03:51:52,0.65,4.35,1.00,24.85,26.88,29.58,4.73,27.58,1013.14,2033.04,2025.61,2304.04,2480.12,350.91,345.35,30.74,0000 0000 0000 0000 000000
2015-04-13 03:56:54,1.37,4.39,1.00,24.89,26.90,29.58,4.66,27.66,1013.15,2033.00,2018.27,2297.00,2472.82,349.80,344.13,30.77,0000 0000 0000 0000 000000
2015-04-13 04:01:55,0.26,4.41,1.00,24.86,26.90,29.60,4.79,27.73,1013.15,2033.01,2015.53,2294.17,2470.05,350.28,344.55,30.80,0000 0000 0000 0000 000000
2015-04-13 04:06:57,0.12,4.41,1.00,24.87,26.91,29.62,4.63,27.88,1013.04,2033.00,2014.74,2293.73,2469.25,349.64,344.08,30.83,0000 0000 0000 0000 000000
2015-04-13 04:11:58,0.08,4.41,1.00,24.87,26.92,29.62,4.70,27.70,1012.97,2033.00,2013.94,2293.04,2468.86,350.20,344.60,30.86,0000 0000 0000 0000 000000
2015-04-13 04:17:00,0.12,4.42,1.00,24.89,26.92,29.63,4.69,27.66,1012.83,2033.00,2013.42,2292.66,2468.05,350.07,344.06,30.89,0000 0000 0000 0000 000000
2015-04-13 04:22:01,0.19,4.42,1.00,24.91,26.94,29.62,4.73,27.59,1012.79,2033.00,2012.08,2291.63,2467.09,350.42,344.57,30.92,0000 0000 0000 0000 000000
2015-04-13 04:27:02,0.18,4.43,0.83,24.94,26.95,29.63,4.71,27.77,1012.76,2032.99,2010.97,2290.58,2466.06,349.81,343.93,30.95,0000 0000 0000 0000 000000
2015-04-13 04:32:03,0.12,4.43,0.00,24.95,26.95,29.62,4.66,27.68,1012.78,2032.99,2010.07,2289.92,2465.12,349.35,343.60,30.98,0000 0000 0000 0000 000000
2015-04-13 04:37:04,0.19,4.44,0.00,25.00,26.96,29.62,4.79,27.89,1012.77,2032.98,2008.96,2289.00,2464.24,350.22,344.41,31.00,0000 0000 0000 0000 000000
2015-04-13 04:42:06,0.16,4.44,0.00,25.03,26.97,29.64,4.71,27.64,1012.81,2032.96,2007.80,2288.10,2463.28,350.00,344.04,31.03,0000 0000 0000 0000 000000
2015-04-13 04:47:07,0.16,4.45,0.00,25.08,26.98,29.65,4.67,27.67,1012.83,2032.94,2006.84,2287.31,2462.33,349.71,343.67,31.06,0000 0000 0000 0000 000000
2015-04-13 04:52:08,0.12,4.45,0.00,25.11,27.00,29.67,4.79,27.77,1012.79,2032.91,2005.94,2286.70,2461.66,350.04,343.92,31.09,0000 0000 0000 0000 000000
2015-04-13 04:57:10,0.02,4.45,0.00,25.15,27.00,29.68,4.72,27.55,1012.83,2032.55,2005.06,2286.01,2460.90,350.01,343.81,31.12,0000 0000 0000 0000 000000
2015-04-13 05:02:11,0.09,4.45,0.00,25.18,27.02,29.69,4.70,27.74,1012.80,2032.11,2004.31,2285.20,2460.06,349.79,343.58,31.15,0000 0000 0000 0000 000000
2015-04-13 05:07:12,0.15,4.46,0.00,25.24,27.03,29.72,4.73,27.68,1012.74,2032.04,2003.32,2284.45,2459.16,349.82,343.56,31.18,0000 0000 0000 0000 000000
2015-04-13 05:12:14,0.21,4.46,0.00,25.26,27.05,29.73,4.75,27.85,1012.78,2032.02,2001.89,2283.50,2458.17,350.17,343.77,31.21,0000 0000 0000 0000 000000
2015-04-13 05:17:15,0.21,4.47,0.00,25.31,27.07,29.75,4.69,27.60,1012.84,2032.03,2000.46,2282.36,2456.99,350.06,343.71,31.24,0000 0000 0000 0000 000000
2015-04-13 05:22:16,0.20,4.48,0.00,25.33,27.09,29.76,4.73,27.63,1013.01,2032.02,1999.28,2281.35,2455.84,350.55,344.28,31.27,0000 0000 0000 0000 000000
2015-04-13 05:27:18,0.21,4.48,0.00,25.36,27.11,29.80,4.75,27.77,1012.91,2032.01,1997.92,2280.19,2454.63,350.32,343.95,31.30,0000 0000 0000 0000 000000
2015-04-13 05:32:19,0.24,4.49,0.00,25.40,27.12,29.82,4.64,27.78,1012.84,2032.00,1996.58,2279.01,2453.30,350.04,343.45,31.33,0000 0000 0000 0000 000000
2015-04-13 05:37:20,0.26,4.50,0.00,25.42,27.15,29.84,4.72,27.63,1012.85,2032.00,1995.04,2277.74,2451.84,349.92,343.48,31.36,0000 0000 0000 0000 000000
2015-04-13 05:42:21,0.22,4.50,0.00,25.47,27.17,29.86,4.72,27.62,1012.83,2032.00,1993.68,2276.63,2450.65,350.20,343.38,31.39,0000 0000 0000 0000 000000
2015-04-13 05:47:22,0.22,4.51,0.00,25.51,27.19,29.88,4.67,27.77,1012.93,2031.99,1992.29,2275.50,2449.44,349.82,343.41,31.41,0000 0000 0000 0000 000000
2015-04-13 05:52:24,0.22,4.52,0.00,25.55,27.21,29.89,4.73,27.65,1013.00,2031.99,1990.86,2274.33,2448.21,349.52,343.20,31.44,0000 0000 0000 0000 000000
2015-04-13 05:57:25,0.20,4.52,0.00,25.60,27.24,29.94,4.71,27.77,1013.09,2031.98,1989.63,2273.29,2447.11,349.78,343.20,31.47,0000 0000 0000 0000 000000
2015-04-13 06:02:26,0.14,4.53,0.00,25.62,27.26,29.97,4.75,27.85,1013.16,2031.81,1988.46,2272.29,2445.89,350.39,343.85,31.50,0000 0000 0000 0000 000000
2015-04-13 06:07:28,0.19,4.53,0.00,25.62,27.29,29.99,4.74,27.71,1013.14,2031.65,1987.30,2271.33,2444.89,350.07,343.50,31.53,0000 0000 0000 0000 000000
2015-04-13 06:12:29,0.09,4.54,0.00,25.63,27.31,30.03,4.71,27.68,1013.17,2031.24,1986.15,2270.26,2443.72,350.06,343.31,31.56,0000 0000 0000 0000 000000
2015-04-13 06:17:30,0.21,4.54,0.00,25.66,27.34,30.05,4.66,27.66,1013.16,2031.08,1984.81,2269.24,2442.54,349.88,343.33,31.59,0000 0000 0000 0000 000000
2015-04-13 06:22:32,0.21,4.55,0.00,25.71,27.36,30.08,4.72,27.57,1013.19,2031.02,1983.52,2267.99,2441.26,349.99,343.32,31.62,0000 0000 0000 0000 000000
2015-04-13 06:27:33,0.21,4.55,0.00,25.75,27.39,30.11,4.71,27.60,1013.19,2031.00,1982.15,2266.83,2439.97,350.05,343.29,31.65,0000 0000 0000 0000 000000
2015-04-13 06:32:34,0.29,4.56,0.00,25.79,27.42,30.13,4.66,27.59,1013.20,2031.00,1980.57,2265.55,2438.62,350.10,343.39,31.68,0000 0000 0000 0000 000000
2015-04-13 06:37:36,0.28,4.57,0.00,25.82,27.44,30.14,4.77,27.56,1013.20,2030.98,1978.77,2264.07,2437.01,350.45,343.63,31.71,0000 0000 0000 0000 000000
2015-04-13 06:42:37,0.28,4.58,0.00,25.87,27.47,30.16,4.72,27.66,1013.20,2030.90,1976.93,2262.56,2435.41,350.20,343.46,31.74,0000 0000 0000 0000 000000
2015-04-13 06:47:38,0.20,4.59,0.00,25.91,27.50,30.21,4.78,27.61,1013.20,2030.61,1975.21,2261.07,2433.75,350.33,343.10,31.77,0000 0000 0000 0000 000000
2015-04-13 06:52:39,0.22,4.59,0.00,25.93,27.52,30.23,4.74,27.58,1013.20,2030.15,1973.55,2259.69,2432.32,349.78,343.04,31.80,0000 0000 0000 0000 000000
2015-04-13 06:57:41,0.22,4.60,0.00,25.96,27.55,30.24,4.66,27.57,1013.22,2030.09,1972.01,2258.41,2430.94,349.80,342.91,31.83,0000 0000 0000 0000 000000
2015-04-13 07:02:42,0.22,4.60,0.00,26.00,27.58,30.29,4.73,27.67,1013.21,2030.02,1970.70,2257.22,2429.66,350.09,342.90,31.85,0000 0000 0000 0000 000000
2015-04-13 07:07:43,0.27,4.61,0.00,26.03,27.61,30.33,4.71,27.61,1013.21,2030.00,1969.11,2255.80,2428.20,350.00,343.07,31.88,0000 0000 0000 0000 000000
2015-04-13 07:12:44,0.26,4.62,0.00,26.08,27.64,30.34,4.71,27.63,1013.22,2030.00,1967.60,2254.51,2426.72,350.25,343.42,31.91,0000 0000 0000 0000 000000
2015-04-13 07:17:46,0.39,4.63,0.00,26.11,27.67,30.36,4.68,27.46,1013.24,2029.99,1965.35,2252.53,2424.63,349.71,342.64,31.94,0000 0000 0000 0000 000000
2015-04-13 07:22:47,0.48,4.64,0.00,26.16,27.70,30.41,4.67,27.62,1013.23,2029.96,1962.88,2250.34,2422.28,350.01,342.80,31.97,0000 0000 0000 0000 000000
2015-04-13 07:27:48,0.46,4.66,0.00,26.19,27.73,30.42,4.67,27.61,1013.22,2029.76,1959.60,2247.36,2419.13,350.27,342.91,32.00,0000 0000 0000 0000 000000
2015-04-13 07:32:49,0.26,4.67,0.00,26.24,27.76,30.45,4.71,27.60,1013.25,2029.33,1957.50,2245.51,2417.05,350.44,343.20,32.03,0000 0000 0000 0000 000000
2015-04-13 07:37:51,0.25,4.68,0.00,26.25,27.78,30.47,4.71,27.53,1013.26,2029.08,1955.73,2243.97,2415.47,350.11,342.94,32.06,0000 0000 0000 0000 000000
2015-04-13 07:42:52,0.17,4.68,0.00,26.27,27.81,30.50,4.65,27.52,1013.38,2029.02,1954.54,2243.01,2414.36,349.75,342.63,32.09,0000 0000 0000 0000 000000
2015-04-13 07:47:54,0.19,4.69,0.00,26.30,27.85,30.53,4.66,27.52,1013.41,2029.00,1953.35,2242.10,2413.35,350.05,342.71,32.12,0000 0000 0000 0000 000000
2015-04-13 07:52:55,0.18,4.69,0.00,26.35,27.87,30.55,4.69,27.53,1013.34,2028.99,1952.31,2241.17,2412.48,350.01,342.70,32.15,0000 0000 0000 0000 000000
2015-04-13 07:57:56,0.12,4.69,0.00,26.40,27.91,30.56,4.62,27.53,1013.31,2028.98,1951.59,2240.65,2411.80,349.77,342.52,32.18,0000 0000 0000 0000 000000
2015-04-13 08:02:58,0.10,4.70,0.00,26.44,27.94,30.59,4.65,27.50,1013.36,2028.95,1950.70,2240.01,2411.03,349.40,341.96,32.21,0000 0000 0000 0000 000000
2015-04-13 08:07:59,0.11,4.70,0.00,26.48,27.96,30.55,4.62,27.55,1013.52,2028.81,1949.94,2239.24,2410.22,350.06,342.74,32.23,0000 0000 0000 0000 000000
2015-04-13 08:13:01,-0.02,4.70,0.00,26.50,28.00,30.54,4.72,27.51,1013.62,2028.25,1949.07,2238.85,2409.51,349.84,342.45,32.26,0000 0000 0000 0000 000000
2015-04-13 08:18:02,0.12,4.71,0.00,26.53,28.03,30.57,4.63,27.47,1013.62,2028.02,1948.23,2238.07,2408.88,350.09,342.75,32.29,0000 0000 0000 0000 000000
2015-04-13 08:23:04,0.14,4.71,0.00,26.53,28.06,30.58,4.64,27.64,1013.64,2028.01,1947.57,2237.61,2408.08,349.98,342.61,32.32,0000 0000 0000 0000 000000
2015-04-13 08:28:05,0.09,4.71,0.00,26.52,28.09,30.61,4.71,27.38,1013.67,2028.00,1946.79,2236.99,2407.42,349.81,342.69,32.35,0000 0000 0000 0000 000000
2015-04-13 08:33:06,0.14,4.72,0.00,26.52,28.13,30.67,4.69,27.47,1013.69,2028.00,1946.00,2236.18,2406.75,350.06,342.68,32.38,0000 0000 0000 0000 000000
2015-04-13 08:38:08,0.11,4.72,0.00,26.50,28.16,30.77,4.69,27.46,1013.68,2027.96,1945.13,2235.71,2406.00,350.13,342.91,32.41,0000 0000 0000 0000 000000
2015-04-13 08:43:09,0.04,4.72,0.00,26.48,28.18,30.91,4.66,27.52,1013.69,2027.67,1944.63,2235.03,2405.19,349.65,342.40,32.44,0000 0000 0000 0000 000000
2015-04-13 08:48:10,0.07,4.72,0.00,26.47,28.21,31.00,4.69,27.52,1013.69,2027.30,1943.88,2234.38,2404.63,350.19,342.63,32.47,0000 0000 0000 0000 000000
2015-04-13 08:53:11,0.05,4.73,0.00,26.46,28.23,31.05,4.69,27.67,1013.69,2027.08,1943.02,2233.91,2403.97,349.43,342.33,32.50,0000 0000 0000 0000 000000
2015-04-13 08:58:13,0.16,4.73,0.00,26.45,28.25,31.09,4.68,27.63,1013.69,2027.02,1942.14,2233.11,2403.14,349.63,342.25,32.53,0000 0000 0000 0000 000000
2015-04-13 09:03:14,0.11,4.73,0.00,26.42,28.27,31.13,4.71,27.63,1013.69,2027.01,1941.50,2232.73,2402.70,350.76,343.31,32.56,0000 0000 0000 0000 000000
2015-04-13 09:08:15,0.11,4.74,0.00,26.41,28.30,31.12,4.67,27.63,1013.69,2027.00,1940.69,2232.02,2401.96,350.03,342.78,32.59,0000 0000 0000 0000 000000
2015-04-13 09:13:16,0.12,4.74,0.00,26.38,28.31,31.14,4.68,27.68,1013.70,2027.00,1940.00,2231.61,2401.24,350.36,343.36,32.62,0000 0000 0000 0000 000000
2015-04-13 09:18:18,0.11,4.74,0.00,26.33,28.32,31.15,4.59,27.70,1013.70,2026.99,1939.18,2230.98,2400.70,349.43,342.42,32.64,0000 0000 0000 0000 000000
2015-04-13 09:23:19,0.14,4.75,0.00,26.31,28.34,31.13,4.68,27.56,1013.71,2026.97,1938.50,2230.23,2400.02,350.38,343.21,32.67,0000 0000 0000 0000 000000
2015-04-13 09:28:20,0.06,4.75,0.00,26.29,28.35,31.15,4.65,27.60,1013.70,2026.95,1937.88,2229.93,2399.43,349.58,342.63,32.70,0000 0000 0000 0000 000000
2015-04-13 09:33:21,0.13,4.76,0.00,26.27,28.35,31.13,4.72,27.69,1013.70,2026.89,1937.00,2229.13,2398.84,349.87,342.87,32.73,0000 0000 0000 0000 000000
2015-04-13 09:38:23,0.12,4.76,0.00,26.26,28.35,31.16,4.62,27.75,1013.73,2026.71,1936.09,2228.56,2398.04,349.73,342.51,32.76,0000 0000 0000 0000 000000
2015-04-13 09:43:24,0.15,4.76,0.00,26.24,28.37,31.17,4.68,27.64,1013.73,2026.85,1935.30,2228.01,2397.34,349.56,342.58,32.79,0000 0000 0000 0000 000000
2015-04-13 09:48:25,0.15,4.77,0.00,26.20,28.37,31.16,4.62,27.63,1013.83,2026.80,1934.38,2227.25,2396.65,350.20,343.38,32.82,0000 0000 0000 0000 000000
2015-04-13 09:53:27,0.10,4.77,0.00,26.19,28.37,31.17,4.68,27.63,1013.90,2026.71,1933.48,2226.69,2395.97,350.27,343.30,32.85,0000 0000 0000 0000 000000
2015-04-13 09:58:28,0.09,4.77,0.00,26.16,28.37,31.15,4.74,27.70,1013.91,2026.58,1932.67,2225.99,2395.10,350.64,343.89,32.88,0000 0000 0000 0000 000000
2015-04-13 10:03:29,0.13,4.78,0.00,26.14,28.37,31.15,4.67,27.67,1014.00,2026.49,1931.84,2225.23,2394.36,350.37,343.48,32.91,0000 0000 0000 0000 000000
2015-04-13 10:08:31,0.14,4.78,0.00,26.10,28.37,31.13,4.64,27.73,1014.06,2026.58,1931.01,2224.75,2393.70,349.88,343.19,32.94,0000 0000 0000 0000 000000
2015-04-13 10:13:32,0.12,4.79,0.00,26.06,28.35,31.10,4.75,27.77,1014.13,2026.50,1930.15,2224.03,2393.01,350.16,343.47,32.97,0000 0000 0000 0000 000000
2015-04-13 10:18:33,0.14,4.79,0.00,26.02,28.35,31.11,4.69,27.78,1014.12,2026.36,1929.34,2223.42,2392.21,349.74,343.00,33.00,0000 0000 0000 0000 000000
2015-04-13 10:23:35,0.12,4.79,0.00,26.02,28.35,31.09,4.67,27.61,1014.15,2026.40,1928.59,2222.96,2391.69,350.35,343.87,33.03,0000 0000 0000 0000 000000
2015-04-13 10:28:36,0.17,4.80,0.00,26.00,28.35,31.08,4.70,27.73,1014.15,2026.69,1927.87,2222.16,2390.99,349.89,343.36,33.06,0000 0000 0000 0000 000000
2015-04-13 10:33:37,0.12,4.80,0.00,25.97,28.32,31.05,4.68,27.77,1014.16,2026.57,1926.98,2221.69,2390.16,350.17,343.56,33.08,0000 0000 0000 0000 000000
2015-04-13 10:38:38,0.12,4.80,0.00,25.94,28.32,31.04,4.70,27.74,1014.15,2026.51,1926.09,2221.02,2389.64,350.10,343.43,33.11,0000 0000 0000 0000 000000
2015-04-13 10:43:40,0.19,4.81,0.00,25.92,28.31,31.00,4.65,27.66,1014.15,2026.84,1925.51,2220.57,2389.02,349.66,343.16,33.14,0000 0000 0000 0000 000000
2015-04-13 10:48:41,0.04,4.81,0.00,25.88,28.30,31.02,4.72,27.63,1014.16,2026.74,1924.75,2220.00,2388.32,349.79,343.41,33.17,0000 0000 0000 0000 000000
2015-04-13 10:53:42,0.18,4.82,0.00,25.85,28.28,31.03,4.73,27.64,1014.17,2026.91,1924.01,2219.37,2387.87,350.72,344.33,33.20,0000 0000 0000 0000 000000
2015-04-13 10:58:44,0.11,4.82,0.00,25.85,28.27,30.98,4.77,27.59,1014.17,2026.97,1923.32,2219.00,2387.10,349.80,343.37,33.23,0000 0000 0000 0000 000000
2015-04-13 11:03:45,0.08,4.82,0.00,25.81,28.25,30.97,4.69,27.68,1014.17,2026.98,1922.83,2218.55,2386.81,349.69,343.40,33.26,0000 0000 0000 0000 000000
2015-04-13 11:08:47,0.11,4.83,0.00,25.79,28.24,30.97,4.70,27.72,1014.17,2026.98,1922.03,2218.00,2386.06,350.21,343.93,33.29,0000 0000 0000 0000 000000
2015-04-13 11:13:48,0.16,4.83,0.00,25.74,28.22,30.94,4.68,27.78,1014.17,2026.98,1921.21,2217.46,2385.51,350.04,343.74,33.32,0000 0000 0000 0000 000000
2015-04-13 11:18:50,0.07,4.83,0.00,25.71,28.20,30.92,4.72,27.78,1014.17,2026.98,1920.59,2217.00,2385.00,350.36,344.03,33.35,0000 0000 0000 0000 000000
2015-04-13 11:23:51,0.11,4.84,0.00,25.67,28.17,30.90,4.72,27.68,1014.17,2026.99,1920.00,2216.51,2384.39,349.73,343.48,33.38,0000 0000 0000 0000 000000
2015-04-13 11:28:52,0.08,4.84,0.00,25.63,28.16,30.85,4.68,27.71,1014.17,2026.99,1919.21,2216.01,2384.00,349.89,343.63,33.41,0000 0000 0000 0000 000000
2015-04-13 11:33:53,0.12,4.84,0.00,25.57,28.14,30.83,4.73,27.75,1014.17,2026.99,1918.67,2215.72,2383.39,349.76,343.50,33.44,0000 0000 0000 0000 000000
2015-04-13 11:38:54,0.07,4.85,0.00,25.53,28.12,30.84,4.69,27.75,1014.17,2026.99,1917.98,2215.02,2382.99,349.83,343.45,33.46,0000 0000 0000 0000 000000
2015-04-13 11:43:55,0.12,4.85,0.00,25.51,28.10,30.80,4.72,27.65,1014.17,2027.04,1917.20,2214.89,2382.25,350.36,344.11,33.49,0000 0000 0000 0000 000000
2015-04-13 11:48:57,0.13,4.85,0.00,25.48,28.07,30.78,4.73,27.74,1014.17,2027.08,1916.62,2214.10,2381.95,350.42,344.47,33.52,0000 0000 0000 0000 000000
2015-04-13 11:53:58,0.08,4.86,0.00,25.47,28.05,30.76,4.69,27.73,1014.17,2027.13,1915.95,2213.88,2381.19,350.01,343.99,33.55,0000 0000 0000 0000 000000
2015-04-13 11:58:59,0.17,4.86,0.00,25.43,28.03,30.72,4.72,27.73,1014.17,2027.24,1915.09,2213.08,2380.84,349.83,344.03,33.58,0000 0000 0000 0000 000000
2015-04-13 12:04:00,0.18,4.86,0.00,25.39,28.01,30.71,4.71,27.69,1014.17,2027.61,1914.47,2212.88,2380.07,349.90,344.03,33.61,0000 0000 0000 0000 000000
2015-04-13 12:09:02,0.29,4.87,0.00,25.35,27.99,30.68,4.68,27.73,1014.17,2027.88,1913.25,2211.76,2379.15,349.72,343.95,33.64,0000 0000 0000 0000 000000
2015-04-13 12:14:03,0.45,4.88,0.00,25.32,27.96,30.66,4.66,27.67,1014.18,2027.92,1910.89,2209.92,2377.08,349.91,344.08,33.67,0000 0000 0000 0000 000000
2015-04-13 12:19:04,0.18,4.89,0.00,25.27,27.94,30.62,4.74,27.57,1014.18,2027.96,1909.28,2208.78,2375.80,350.38,344.47,33.70,0000 0000 0000 0000 000000
2015-04-13 12:24:05,0.17,4.90,0.00,25.25,27.91,30.58,4.66,27.53,1014.18,2027.98,1908.26,2207.93,2374.87,349.63,343.87,33.73,0000 0000 0000 0000 000000
2015-04-13 12:29:07,0.23,4.90,0.00,25.22,27.89,30.55,4.73,27.67,1014.19,2027.99,1907.03,2206.91,2373.66,349.76,344.04,33.76,0000 0000 0000 0000 000000
2015-04-13 12:34:08,0.16,4.91,0.00,25.19,27.87,30.54,4.67,27.66,1014.19,2027.99,1905.91,2206.06,2372.80,349.91,344.35,33.79,0000 0000 0000 0000 000000
2015-04-13 12:39:09,0.16,4.92,0.00,25.17,27.84,30.50,4.64,27.68,1014.18,2027.99,1904.96,2205.25,2372.01,349.33,343.73,33.82,0000 0000 0000 0000 000000
2015-04-13 12:44:10,0.14,4.92,0.00,25.11,27.81,30.48,4.63,27.64,1014.19,2027.99,1904.08,2204.73,2371.18,349.54,343.95,33.85,0000 0000 0000 0000 000000
2015-04-13 12:49:11,0.16,4.92,0.00,25.09,27.79,30.46,4.81,27.56,1014.18,2027.99,1903.03,2203.95,2370.43,350.22,344.51,33.87,0000 0000 0000 0000 000000
2015-04-13 12:54:13,0.21,4.93,0.00,25.04,27.76,30.43,4.75,27.77,1014.18,2028.02,1901.83,2203.07,2369.48,350.22,344.65,33.90,0000 0000 0000 0000 000000
2015-04-13 12:59:14,0.23,4.93,0.00,24.99,27.73,30.39,4.77,27.72,1014.19,2028.11,1900.62,2202.16,2368.53,350.05,344.51,33.93,0000 0000 0000 0000 000000